Home   Weather   Leonberg   Past weeks

Flag for Germany Past Weather in Leonberg, Baden-Württemberg, Germany — Yesterday and Last 2 Weeks

Now
34 °F

Sunny.


Feels Like: 34 °F
Forecast: 33 / 50 °F
Wind: 2 mph from North

Location: Stuttgart-Echterdingen

Current Time: Feb 25, 2017 at 10:10:19 am

Latest Report: Feb 25, 2017 at 9:20 am


Visibility: 10 mi

Pressure: 30.21 "Hg

Humidity: 87%

Dew Point: 30 °F

Location of LeonbergLocation

Past Weather in Leonberg — Graph

°F

Leonberg Temperature Yesterday

Maximum temperature yesterday: 45 °F (at 12:20 am)
Minimum temperature yesterday: 34 °F (at 9:50 pm)
Average temperature yesterday: 41 °F

High & Low Weather Summary for the Past Weeks

 TemperatureHumidityPressure
High64 °F (Feb 23, 2:20 pm)100% (Feb 11, 3:20 am)30.54 "Hg (Feb 11, 3:20 am)
Low23 °F (Feb 11, 5:20 am)27% (Feb 23, 2:50 pm)29.50 "Hg (Feb 23, 3:50 pm)
Average40 °F80%30.17 "Hg
* Reported Feb 10 8:20 am — Feb 25 8:50 am, Leonberg, Weather by CustomWeather, © 2017

Note: Actual official high and low records may vary slightly from our data, if they occured in-between our weather recording intervals... More about our weather records

Advertising

Leonberg Weather History for the Previous 24 Hours

Scroll right to see more
 ConditionsComfort  
Time TempWeatherWind HumidityBarometerVisibility
8:50 am
Sat, Feb 25
34 °FSunny.1 mph93%30.21 "Hg10 mi
8:20 am30 °FSunny.1 mph100%30.18 "Hg10 mi
7:50 am27 °FLight fog.2 mph100%30.18 "Hg4 mi
7:20 am27 °FLight fog.2 mph93%30.18 "Hg1 mi
6:50 am27 °FSleet. Overcast.1 mph100%30.18 "Hg4 mi
6:20 am28 °FLight fog.2 mph93%30.15 "HgN/A
5:50 am28 °FLight fog.1 mph93%30.15 "HgN/A
5:20 am28 °FFog.1 mph93%30.15 "HgN/A
4:50 am28 °FFog.1 mph100%30.15 "HgN/A
4:20 am28 °FClear.1 mph93%30.15 "Hg10 mi
3:50 am28 °FClear.2 mph100%30.15 "Hg10 mi
3:20 am28 °FClear.1 mph100%30.15 "Hg10 mi
2:50 am30 °FClear.1 mph93%30.15 "Hg10 mi
2:20 am30 °FClear.1 mph93%30.15 "Hg10 mi
1:50 am30 °FClear.No wind93%30.15 "Hg10 mi
1:20 am30 °FClear.3 mph100%30.15 "Hg10 mi
12:50 am30 °FClear.5 mph93%30.15 "Hg10 mi
12:20 am32 °FPassing clouds.2 mph93%30.12 "HgN/A
11:50 pm
Fri, Feb 24
34 °FPassing clouds.3 mph87%30.12 "HgN/A
11:20 pm34 °FClear.2 mph87%30.12 "Hg10 mi
10:50 pm36 °FPassing clouds.2 mph87%30.09 "HgN/A
10:20 pm36 °FPassing clouds.2 mph87%30.09 "HgN/A
9:50 pm34 °FPassing clouds.3 mph87%30.09 "HgN/A
9:20 pm36 °FPassing clouds.3 mph81%30.09 "HgN/A
8:50 pm36 °FClear.6 mph87%30.07 "Hg10 mi
8:20 pm36 °FPassing clouds.8 mph87%30.07 "HgN/A
7:50 pm37 °FPassing clouds.8 mph87%30.04 "HgN/A
7:20 pm39 °FPassing clouds.2 mph81%30.04 "HgN/A
6:50 pm39 °FPassing clouds.2 mph81%30.01 "HgN/A
6:20 pm39 °FScattered showers. Passing clouds.3 mph81%30.01 "HgN/A
5:50 pm41 °FScattered showers. Partly sunny.3 mph66%29.98 "HgN/A
5:20 pm43 °FSprinkles. Broken clouds.9 mph57%29.95 "HgN/A
4:50 pm45 °FSprinkles. Scattered clouds.8 mph49%29.95 "HgN/A
4:20 pm43 °FScattered clouds.9 mph57%29.92 "HgN/A
3:50 pm45 °FPartly sunny.7 mph53%29.92 "HgN/A
3:20 pm45 °FSprinkles. Scattered clouds.10 mph57%29.92 "HgN/A
2:50 pm45 °FScattered showers. Scattered clouds.9 mph53%29.92 "HgN/A
2:20 pm45 °FPartly sunny.14 mph57%29.92 "HgN/A
1:50 pm45 °FBroken clouds.12 mph53%29.92 "HgN/A
1:20 pm45 °FPartly sunny.14 mph53%29.92 "HgN/A
12:50 pm45 °FPartly sunny.10 mph57%29.89 "HgN/A
12:20 pm45 °FScattered clouds.13 mph57%29.89 "HgN/A
11:50 am45 °FScattered clouds.14 mph57%29.89 "HgN/A
11:20 am43 °FScattered clouds.15 mph66%29.89 "HgN/A
10:50 am41 °FPartly sunny.17 mph70%29.89 "HgN/A
10:20 am41 °FPartly sunny.16 mph76%29.89 "HgN/A
Weather by CustomWeather, © 2017

See weather overviewHow to use our weather pages